H1 CPF 2 NER 2025 10 3 9 276 01 glonass140 H2 1903001 9140 44299 2025 10 3 0 0 0 2025 10 6 23 45 0 900 1 1 0 0 0 1 H9 10 0 60951 0.00000 0 11678073.750 -8341166.863 21114671.259 10 0 60951 900.00000 0 14173338.501 -8078772.054 19636538.204 10 0 60951 1800.00000 0 16476414.308 -8009780.419 17777973.451 10 0 60951 2700.00000 0 18528896.026 -8106103.678 15574919.906 10 0 60951 3600.00000 0 20280455.841 -8330003.289 13069996.131 10 0 60951 4500.00000 0 21690757.381 -8635846.844 10311682.728 10 0 60951 5400.00000 0 22730968.973 -8972209.403 7353394.467 10 0 60951 6300.00000 0 23384813.215 -9284231.799 4252454.987 10 0 60951 7200.00000 0 23649108.794 -9516136.892 1068993.077 10 0 60951 8100.00000 0 23533781.500 -9613797.720 -2135218.684 10 0 60951 9000.00000 0 23061343.361 -9527248.781 -5297960.717 10 0 60951 9900.00000 0 22265861.169 -9213033.658 -8357775.382 10 0 60951 10800.00000 0 21191457.315 -8636288.808 -11255164.295 10 0 60951 11700.00000 0 19890405.392 -7772473.906 -13933750.299 10 0 60951 12600.00000 0 18420900.491 -6608673.972 -16341380.834 10 0 60951 13500.00000 0 16844597.879 -5144416.335 -18431150.561 10 0 60951 14400.00000 0 15224023.667 -3391965.850 -20162322.719 10 0 60951 15300.00000 0 13619966.653 -1376083.887 -21501130.604 10 0 60951 16200.00000 0 12088961.299 866740.807 -22421443.059 10 0 60951 17100.00000 0 10680967.968 3289558.879 -22905280.562 10 0 60951 18000.00000 0 9437348.190 5836673.196 -22943171.439 10 0 60951 18900.00000 0 8389220.224 8445727.236 -22534340.971 10 0 60951 19800.00000 0 7556263.955 11050082.566 -21686729.413 10 0 60951 20700.00000 0 6946025.202 13581386.544 -20416838.363 10 0 60951 21600.00000 0 6553748.180 15972223.237 -18749408.302 10 0 60951 22500.00000 0 6362742.455 18158736.834 -16716933.540 10 0 60951 23400.00000 0 6345267.964 20083117.824 -14359024.083 10 0 60951 24300.00000 0 6463899.566 21695847.912 -11721627.122 10 0 60951 25200.00000 0 6673312.190 22957609.807 -8856123.716 10 0 60951 26100.00000 0 6922409.646 23840782.106 -5818318.955 10 0 60951 27000.00000 0 7156705.625 24330457.238 -2667346.058 10 0 60951 27900.00000 0 7320854.716 24424940.600 535493.322 10 0 60951 28800.00000 0 7361225.054 24135711.179 3727929.019 10 0 60951 29700.00000 0 7228402.697 23486846.738 6847938.262 10 0 60951 30600.00000 0 6879521.023 22513939.323 9834953.230 10 0 60951 31500.00000 0 6280316.214 21262548.229 12631036.275 10 0 60951 32400.00000 0 5406821.841 19786256.804 15181999.938 10 0 60951 33300.00000 0 4246631.065 18144415.743 17438450.307 10 0 60951 34200.00000 0 2799673.438 16399668.183 19356734.129 10 0 60951 35100.00000 0 1078473.715 14615360.436 20899772.339 10 0 60951 36000.00000 0 -892118.269 12852946.307 22037765.119 10 0 60951 36900.00000 0 -3075715.660 11169492.700 22748756.183 10 0 60951 37800.00000 0 -5425668.344 9615389.390 23019046.680 10 0 60951 38700.00000 0 -7886770.299 8232357.007 22843451.891 10 0 60951 39600.00000 0 -10397330.763 7051834.735 22225396.577 10 0 60951 40500.00000 0 -12891524.668 6093813.367 21176847.606 10 0 60951 41400.00000 0 -15301926.393 5366161.013 19718085.199 10 0 60951 42300.00000 0 -17562123.242 4864468.535 17877316.785 10 0 60951 43200.00000 0 -19609301.679 4572420.416 15690140.216 10 0 60951 44100.00000 0 -21386700.115 4462675.174 13198865.590 10 0 60951 45000.00000 0 -22845827.090 4498218.363 10451707.665 10 0 60951 45900.00000 0 -23948353.092 4634131.519 7501863.233 10 0 60951 46800.00000 0 -24667597.232 4819702.971 4406490.182 10 0 60951 47700.00000 0 -24989546.368 5000791.858 1225607.144 10 0 60951 48600.00000 0 -24913363.599 5122345.787 -1979065.566 10 0 60951 49500.00000 0 -24451363.949 5130965.625 -5145301.586 10 0 60951 50400.00000 0 -23628457.493 4977408.581 -8211577.445 10 0 60951 51300.00000 0 -22481082.493 4618922.905 -11118271.047 10 0 60951 52200.00000 0 -21055672.620 4021314.264 -13808825.964 10 0 60951 53100.00000 0 -19406722.107 3160654.967 -16230858.201 10 0 60951 54000.00000 0 -17594529.710 2024561.957 -18337183.268 10 0 60951 54900.00000 0 -15682716.087 612987.700 -20086742.916 10 0 60951 55800.00000 0 -13735618.888 -1061511.419 -21445412.864 10 0 60951 56700.00000 0 -11815674.989 -2974042.501 -22386675.241 10 0 60951 57600.00000 0 -9980899.897 -5088170.001 -22892142.247 10 0 60951 58500.00000 0 -8282570.214 -7357204.379 -22951920.370 10 0 60951 59400.00000 0 -6763206.449 -9725932.870 -22564807.806 10 0 60951 60300.00000 0 -5454940.674 -12132720.942 -21738320.897 10 0 60951 61200.00000 0 -4378337.261 -14511897.120 -20488548.882 10 0 60951 62100.00000 0 -3541715.652 -16796321.759 -18839839.604 10 0 60951 63000.00000 0 -2941002.791 -18920032.398 -16824322.214 10 0 60951 63900.00000 0 -2560120.383 -20820854.821 -14481276.289 10 0 60951 64800.00000 0 -2371889.289 -22442870.338 -11856359.831 10 0 60951 65700.00000 0 -2339411.441 -23738635.725 -9000711.649 10 0 60951 66600.00000 0 -2417869.231 -24671062.716 -5969946.241 10 0 60951 67500.00000 0 -2556664.653 -25214878.370 -2823061.564 10 0 60951 68400.00000 0 -2701806.047 -25357605.507 378718.135 10 0 60951 69300.00000 0 -2798439.929 -25100022.796 3573140.896 10 0 60951 70200.00000 0 -2793419.454 -24456086.287 6698142.793 10 0 60951 71100.00000 0 -2637799.843 -23452316.928 9693056.509 10 0 60951 72000.00000 0 -2289154.550 -22126681.186 12499788.715 10 0 60951 72900.00000 0 -1713613.971 -20527013.056 15063943.310 10 0 60951 73800.00000 0 -887540.559 -18709044.728 17335868.983 10 0 60951 74700.00000 0 201230.133 -16734129.159 19271611.421 10 0 60951 75600.00000 0 1552634.527 -14666750.160 20833752.732 10 0 60951 76500.00000 0 3154143.865 -12571923.791 21992123.045 10 0 60951 77400.00000 0 4981054.850 -10512598.867 22724371.891 10 0 60951 78300.00000 0 6997296.356 -8547163.771 23016389.631 10 0 60951 79200.00000 0 9156719.283 -6727161.926 22862571.933 10 0 60951 80100.00000 0 11404816.851 -5095309.406 22265923.078 10 0 60951 81000.00000 0 13680805.091 -3683895.422 21237996.549 10 0 60951 81900.00000 0 15919978.535 -2513630.684 19798674.105 10 0 60951 82800.00000 0 18056244.734 -1592990.205 17975787.228 10 0 60951 83700.00000 0 20024733.736 -918076.873 15804587.506 10 0 60951 84600.00000 0 21764375.276 -473010.739 13327075.121 10 0 60951 85500.00000 0 23220337.325 -230827.316 10591197.271 10 0 60952 0.00000 0 24346224.886 -154847.103 7649931.046 10 0 60952 900.00000 0 25105947.872 -200458.873 4560265.767 10 0 60952 1800.00000 0 25475178.536 -317241.879 1382107.627 10 0 60952 2700.00000 0 25442338.642 -451337.519 -1822878.078 10 0 60952 3600.00000 0 25009072.497 -547970.411 -4992461.092 10 0 60952 4500.00000 0 24190185.787 -554011.948 -8065055.034 10 0 60952 5400.00000 0 23013051.480 -420477.350 -10980916.964 10 0 60952 6300.00000 0 21516506.721 -104849.674 -13683313.886 10 0 60952 7200.00000 0 19749286.094 426868.812 -16119632.848 10 0 60952 8100.00000 0 17768056.306 1198466.141 -18242412.429 10 0 60952 9000.00000 0 15635134.235 2222264.220 -20010274.832 10 0 60952 9900.00000 0 13415983.812 3498351.365 -21388739.834 10 0 60952 10800.00000 0 11176596.517 5014338.061 -22350904.194 10 0 60952 11700.00000 0 8980865.235 6745648.062 -22877972.847 10 0 60952 12600.00000 0 6888061.503 8656334.271 -22959631.114 10 0 60952 13500.00000 0 4950521.786 10700386.590 -22594250.387 10 0 60952 14400.00000 0 3211639.502 12823477.961 -21788922.970 10 0 60952 15300.00000 0 1704246.676 14965076.222 -20559325.180 10 0 60952 16200.00000 0 449452.451 17060833.662 -18929411.208 10 0 60952 17100.00000 0 -544013.596 19045154.320 -16930943.611 10 0 60952 18000.00000 0 -1279926.847 20853831.245 -14602869.667 10 0 60952 18900.00000 0 -1774157.854 22426642.867 -11990555.944 10 0 60952 19800.00000 0 -2053746.217 23709799.215 -9144896.404 10 0 60952 20700.00000 0 -2155498.979 24658134.962 -6121312.074 10 0 60952 21600.00000 0 -2124174.553 25236957.070 -2978662.546 10 0 60952 22500.00000 0 -2010330.853 25423469.502 221908.590 10 0 60952 23400.00000 0 -1867930.329 25207715.482 3418170.882 10 0 60952 24300.00000 0 -1751804.836 24592998.410 6548022.518 10 0 60952 25200.00000 0 -1715088.806 23595764.662 9550699.836 10 0 60952 26100.00000 0 -1806730.194 22244954.278 12367956.791 10 0 60952 27000.00000 0 -2069184.917 20580847.915 14945191.343 10 0 60952 27900.00000 0 -2536392.305 18653459.394 17232497.200 10 0 60952 28800.00000 0 -3232116.853 16520541.865 19185621.090 10 0 60952 29700.00000 0 -4168725.835 14245291.355 20766808.041 10 0 60952 30600.00000 0 -5346453.924 11893843.415 21945519.514 10 0 60952 31500.00000 0 -6753185.506 9532666.715 22699011.851 10 0 60952 32400.00000 0 -8364763.938 7225961.044 23012765.173 10 0 60952 33300.00000 0 -10145815.211 5033166.528 22880755.633 10 0 60952 34200.00000 0 -12051052.429 3006685.968 22305566.626 10 0 60952 35100.00000 0 -14027007.755 1189913.126 21298337.310 10 0 60952 36000.00000 0 -16014121.054 -384352.849 19878549.512 10 0 60952 36900.00000 0 -17949099.662 -1695042.510 18073656.765 10 0 60952 37800.00000 0 -19767452.492 -2733454.808 15918561.914 10 0 60952 38700.00000 0 -21406094.244 -3503373.820 13454952.327 10 0 60952 39600.00000 0 -22805912.130 -4020659.278 10730504.407 10 0 60952 40500.00000 0 -23914188.691 -4312328.445 7797971.539 10 0 60952 41400.00000 0 -24686779.725 -4415167.990 4714171.974 10 0 60952 42300.00000 0 -25089956.034 -4373934.148 1538895.360 10 0 60952 43200.00000 0 -25101831.123 -4239216.903 -1666251.559 10 0 60952 44100.00000 0 -24713314.192 -4065058.274 -4839038.026 10 0 60952 45000.00000 0 -23928546.951 -3906425.467 -7917817.968 10 0 60952 45900.00000 0 -22764804.740 -3816646.171 -10842730.585 10 0 60952 46800.00000 0 -21251864.877 -3844915.095 -13556869.023 10 0 60952 47700.00000 0 -19430867.284 -4033978.258 -16007393.766 10 0 60952 48600.00000 0 -17352714.220 -4418094.186 -18146568.428 10 0 60952 49500.00000 0 -15076075.299 -5021359.700 -19932697.148 10 0 60952 50400.00000 0 -12665080.860 -5856472.606 -21330944.676 10 0 60952 51300.00000 0 -10186799.815 -6923985.193 -22314022.692 10 0 60952 52200.00000 0 -7708607.303 -8212081.692 -22862728.519 10 0 60952 53100.00000 0 -5295552.125 -9696890.624 -22966325.346 10 0 60952 54000.00000 0 -3007833.935 -11343320.303 -22622756.231 10 0 60952 54900.00000 0 -898495.494 -13106383.499 -21838687.418 10 0 60952 55800.00000 0 988573.726 -14932956.460 -20629379.896 10 0 60952 56700.00000 0 2620239.557 -16763898.911 -19018391.503 10 0 60952 57600.00000 0 3975264.373 -18536446.223 -17037115.297 10 0 60952 58500.00000 0 5044940.690 -20186773.153 -14724163.242 10 0 60952 59400.00000 0 5833191.817 -21652621.153 -12124607.411 10 0 60952 60300.00000 0 6356136.917 -22875878.370 -9289093.902 10 0 60952 61200.00000 0 6641140.549 -23805003.381 -6272847.342 10 0 60952 62100.00000 0 6725388.749 -24397190.296 -3134586.166 10 0 60952 63000.00000 0 6654053.732 -24620183.942 64629.298 10 0 60952 63900.00000 0 6478126.738 -24453668.744 3262592.498 10 0 60952 64800.00000 0 6252012.378 -23890173.191 6397165.906 10 0 60952 65700.00000 0 6030987.741 -22935452.403 9407491.446 10 0 60952 66600.00000 0 5868634.793 -21608333.501 12235172.024 10 0 60952 67500.00000 0 5814355.312 -19940031.127 14825401.086 10 0 60952 68400.00000 0 5911073.603 -17972962.645 17128018.505 10 0 60952 69300.00000 0 6193223.843 -15759113.280 19098472.912 10 0 60952 70200.00000 0 6685106.523 -13358019.902 20698672.822 10 0 60952 71100.00000 0 7399682.703 -10834457.510 21897711.295 10 0 60952 72000.00000 0 8337856.280 -8255924.371 22672451.452 10 0 60952 72900.00000 0 9488274.125 -5690029.478 23007962.871 10 0 60952 73800.00000 0 10827652.484 -3201889.549 22897801.627 10 0 60952 74700.00000 0 12321616.342 -851642.062 22344129.445 10 0 60952 75600.00000 0 13926017.447 1307824.280 21357670.189 10 0 60952 76500.00000 0 15588676.997 3232829.267 19957504.627 10 0 60952 77400.00000 0 17251481.531 4890471.437 18170707.075 10 0 60952 78300.00000 0 18852745.956 6259745.062 16031830.232 10 0 60952 79200.00000 0 20329746.359 7332158.634 13582247.106 10 0 60952 80100.00000 0 21621317.926 8111829.903 10869361.603 10 0 60952 81000.00000 0 22670410.115 8615054.039 7945701.794 10 0 60952 81900.00000 0 23426492.596 8869363.358 4867912.248 10 0 60952 82800.00000 0 23847711.052 8912118.092 1695664.064 10 0 60952 83700.00000 0 23902701.906 8788687.448 -1509496.974 10 0 60952 84600.00000 0 23571988.824 8550297.563 -4685342.130 10 0 60952 85500.00000 0 22848901.019 8251637.229 -7770168.192 10 0 60953 0.00000 0 21739973.525 7948322.815 -10703998.747 10 0 60953 900.00000 0 20264810.301 7694329.841 -13429755.989 10 0 60953 1800.00000 0 18455415.923 7539500.974 -15894375.756 10 0 60953 2700.00000 0 16355020.540 7527236.182 -18049848.674 10 0 60953 3600.00000 0 14016447.402 7692464.311 -19854162.549 10 0 60953 4500.00000 0 11500089.890 8059982.960 -21272128.609 10 0 60953 5400.00000 0 8871582.069 8643238.150 -22276074.715 10 0 60953 6300.00000 0 6199259.593 9443596.726 -22846391.589 10 0 60953 7200.00000 0 3551516.808 10450143.507 -22971921.000 10 0 60953 8100.00000 0 994170.161 11640012.939 -22650178.050 10 0 60953 9000.00000 0 -1412062.150 12979242.353 -21887402.912 10 0 60953 9900.00000 0 -3613859.241 14424111.638 -20698440.793 10 0 60953 10800.00000 0 -5567279.636 15922913.487 -19106452.266 10 0 60953 11700.00000 0 -7239344.065 17418079.911 -17142459.523 10 0 60953 12600.00000 0 -8609153.524 18848575.425 -14844737.412 10 0 60953 13500.00000 0 -9668496.828 20152455.838 -12258061.341 10 0 60953 14400.00000 0 -10421923.589 21269484.391 -9432827.052 10 0 60953 15300.00000 0 -10886281.213 22143694.424 -6424060.038 10 0 60953 16200.00000 0 -11089737.317 22725790.010 -3290334.686 10 0 60953 17100.00000 0 -11070330.806 22975282.927 -92625.064 10 0 60953 18000.00000 0 -10874114.810 22862275.600 3106889.206 10 0 60953 18900.00000 0 -10552971.837 22368814.908 6246037.883 10 0 60953 19800.00000 0 -10162195.187 21489760.053 9263871.393 10 0 60953 20700.00000 0 -9757940.144 20233128.455 12101844.399 10 0 60953 21600.00000 0 -9394653.594 18619905.721 14704948.453 10 0 60953 22500.00000 0 -9122591.023 16683328.280 17022772.009 10 0 60953 23400.00000 0 -8985525.677 14467669.276 19010467.780 10 0 60953 24300.00000 0 -9018746.065 12026578.756 20629609.673 10 0 60953 25200.00000 0 -9247425.502 9421047.386 21848923.947 10 0 60953 26100.00000 0 -9685431.512 6717078.108 22644881.763 10 0 60953 27000.00000 0 -10334624.442 3983161.701 23002143.035 10 0 60953 27900.00000 0 -11184674.280 1287659.848 22913844.218 10 0 60953 28800.00000 0 -12213403.228 -1303797.238 22381725.365 10 0 60953 29700.00000 0 -13387639.965 -3730792.493 21416094.554 10 0 60953 30600.00000 0 -14664550.521 -5940381.916 20035630.482 10 0 60953 31500.00000 0 -15993391.065 -7889040.721 18267026.721 10 0 60953 32400.00000 0 -17317610.474 -9544216.541 16144483.794 10 0 60953 33300.00000 0 -18577215.999 -10885426.427 13709057.875 10 0 60953 34200.00000 0 -19711304.074 -11904852.927 11007877.493 10 0 60953 35100.00000 0 -20660651.230 -12607415.087 8093242.217 10 0 60953 36000.00000 0 -21370257.033 -13010311.791 5021619.526 10 0 60953 36900.00000 0 -21791732.369 -13142056.636 1852558.418 10 0 60953 37800.00000 0 -21885432.498 -13041044.916 -1352459.901 10 0 60953 38700.00000 0 -21622244.232 -12753712.891 -4531212.319 10 0 60953 39600.00000 0 -20984950.933 -12332366.874 -7621942.019 10 0 60953 40500.00000 0 -19969116.382 -11832773.906 -10564560.895 10 0 60953 41400.00000 0 -18583448.645 -11311615.985 -13301822.348 10 0 60953 42300.00000 0 -16849626.858 -10823915.941 -15780441.035 10 0 60953 43200.00000 0 -14801596.398 -10420544.388 -17952137.147 10 0 60953 44100.00000 0 -12484360.415 -10145914.029 -19774584.230 10 0 60953 45000.00000 0 -9952317.032 -10035959.711 -21212241.476 10 0 60953 45900.00000 0 -7267210.656 -10116490.624 -22237053.756 10 0 60953 46800.00000 0 -4495782.198 -10401985.313 -22829005.307 10 0 60953 47700.00000 0 -1707215.783 -10894881.400 -22976515.900 10 0 60953 48600.00000 0 1029511.905 -11585390.922 -22676671.442 10 0 60953 49500.00000 0 3648269.322 -12451849.899 -21935284.212 10 0 60953 50400.00000 0 6088284.947 -13461587.996 -20766781.334 10 0 60953 51300.00000 0 8296434.663 -14572281.988 -19193923.424 10 0 60953 52200.00000 0 10229206.473 -15733736.109 -17247358.812 10 0 60953 53100.00000 0 11854260.982 -16890014.058 -14965022.017 10 0 60953 54000.00000 0 13151523.184 -17981832.364 -12391388.404 10 0 60953 54900.00000 0 14113760.933 -18949113.561 -9576599.889 10 0 60953 55800.00000 0 14746627.241 -19733590.725 -6575479.332 10 0 60953 56700.00000 0 15068166.394 -20281352.694 -3446453.609 10 0 60953 57600.00000 0 15107806.582 -20545221.875 -250407.200 10 0 60953 58500.00000 0 14904883.541 -20486863.737 2950510.342 10 0 60953 59400.00000 0 14506759.514 -20078538.693 6094098.900 10 0 60953 60300.00000 0 13966618.759 -19304422.429 9119319.901 10 0 60953 61200.00000 0 13341034.228 -18161439.245 11967481.833 10 0 60953 62100.00000 0 12687409.288 -16659573.679 14583375.999 10 0 60953 63000.00000 0 12061403.065 -14821647.739 16916340.624 10 0 60953 63900.00000 0 11514448.156 -12682573.450 18921233.240 10 0 60953 64800.00000 0 11091464.969 -10288112.219 20559293.464 10 0 60953 65700.00000 0 10828868.205 -7693192.724 21798880.675 10 0 60953 66600.00000 0 10752948.403 -4959857.052 22616073.635 10 0 60953 67500.00000 0 10878695.517 -2154919.724 22995121.846 10 0 60953 68400.00000 0 11209113.042 652564.370 22928741.125 10 0 60953 69300.00000 0 11735050.800 3393919.513 22418248.614 10 0 60953 70200.00000 0 12435563.134 6003449.341 21473535.183 10 0 60953 71100.00000 0 13278777.633 8420911.687 20112875.907 10 0 60953 72000.00000 0 14223238.534 10593767.268 18362581.944 10 0 60953 72900.00000 0 15219669.362 12479110.562 16256499.884 10 0 60953 73800.00000 0 16213081.954 14045204.040 13835367.192 10 0 60953 74700.00000 0 17145144.509 15272552.985 11146035.067 10 0 60953 75600.00000 0 17956710.209 16154476.812 8240572.500 10 0 60953 76500.00000 0 18590400.837 16697153.413 5175267.679 10 0 60953 77400.00000 0 18993137.232 16919134.907 2009545.192 10 0 60953 78300.00000 0 19118509.819 16850354.933 -1195180.719 10 0 60953 79200.00000 0 18928888.743 16530669.014 -4376694.988 10 0 60953 80100.00000 0 18397183.789 16007989.410 -7473189.589 10 0 60953 81000.00000 0 17508178.421 15336092.915 -10424466.762 10 0 60953 81900.00000 0 16259380.085 14572194.186 -13173113.778 10 0 60953 82800.00000 0 14661349.071 13774387.294 -15665625.787 10 0 60953 83700.00000 0 12737490.138 12999063.921 -17853454.261 10 0 60953 84600.00000 0 10523313.733 12298417.842 -19693959.981 10 0 60953 85500.00000 0 8065196.103 11718141.794 -21151251.379 10 0 60954 0.00000 0 5418688.987 11295414.740 -22196891.319 10 0 60954 900.00000 0 2646446.911 11057265.090 -22810458.580 10 0 60954 1800.00000 0 -184138.625 11019380.210 -22979951.390 10 0 60954 2700.00000 0 -3003504.671 11185412.346 -22702026.715 10 0 60954 3600.00000 0 -5742571.988 11546811.365 -21982068.824 10 0 60954 4500.00000 0 -8335380.718 12083191.482 -20834086.207 10 0 60954 5400.00000 0 -10721596.618 12763216.682 -19280438.520 10 0 60954 6300.00000 0 -12848783.491 13545967.448 -17351398.781 10 0 60954 7200.00000 0 -14674347.227 14382730.765 -15084559.326 10 0 60954 8100.00000 0 -16167070.707 15219137.344 -12524093.292 10 0 60954 9000.00000 0 -17308176.138 15997555.066 -9719886.327 10 0 60954 9900.00000 0 -18091871.378 16659636.662 -6726556.064 10 0 60954 10800.00000 0 -18525358.750 17148913.061 -3602379.176 10 0 60954 11700.00000 0 -18628307.681 17413321.935 -408147.827 10 0 60954 12600.00000 0 -18431815.247 17407563.788 2794021.204 10 0 60954 13500.00000 0 -17976900.402 17095185.525 5941900.615 10 0 60954 14400.00000 0 -17312597.257 16450303.184 8974365.455 10 0 60954 15300.00000 0 -16493729.514 15458891.098 11832580.602 10 0 60954 16200.00000 0 -15578461.235 14119583.292 14461139.560 10 0 60954 17100.00000 0 -14625728.063 12443953.636 16809132.640 10 0 60954 18000.00000 0 -13692657.466 10456263.242 18831124.334 10 0 60954 18900.00000 0 -12832086.399 8192685.826 20488021.885 10 0 60954 19800.00000 0 -12090280.170 5700043.290 21747819.439 10 0 60954 20700.00000 0 -11504947.307 3034103.926 22586204.701 10 0 60954 21600.00000 0 -11103632.595 257513.296 22987017.763 10 0 60954 22500.00000 0 -10902554.402 -2562557.331 22942554.427 10 0 60954 23400.00000 0 -10905933.980 -5356948.778 22453709.145 10 0 60954 24300.00000 0 -11105843.999 -8057134.444 21529955.383 10 0 60954 25200.00000 0 -11482582.246 -10597816.658 20189163.941 10 0 60954 26100.00000 0 -12005554.803 -12919393.009 18457262.472 10 0 60954 27000.00000 0 -12634632.037 -14970192.017 16367742.087 10 0 60954 27900.00000 0 -13321921.209 -16708386.742 13961019.593 10 0 60954 28800.00000 0 -14013882.111 -18103507.820 11283666.521 10 0 60954 29700.00000 0 -14653697.679 -19137493.644 8387518.614 10 0 60954 30600.00000 0 -15183800.600 -19805234.292 5328681.852 10 0 60954 31500.00000 0 -15548450.017 -20114586.539 2166453.281 10 0 60954 32400.00000 0 -15696249.736 -20085859.162 -1037823.106 10 0 60954 33300.00000 0 -15582501.482 -19750789.926 -4221943.672 10 0 60954 34200.00000 0 -15171292.927 -19151056.840 -7324052.617 10 0 60954 35100.00000 0 -14437231.218 -18336386.173 -10283845.959 10 0 60954 36000.00000 0 -13366747.355 -17362336.885 -13043748.206 10 0 60954 36900.00000 0 -11958914.460 -16287854.801 -15550038.204 10 0 60954 37800.00000 0 -10225743.491 -15172699.921 -17753901.656 10 0 60954 38700.00000 0 -8191941.901 -14074855.690 -19612389.148 10 0 60954 39600.00000 0 -5894143.411 -13048029.996 -21089260.435 10 0 60954 40500.00000 0 -3379639.402 -12139353.783 -22155698.024 10 0 60954 41400.00000 0 -704663.507 -11387374.827 -22790875.713 10 0 60954 42300.00000 0 2067700.098 -10820431.762 -22982370.609 10 0 60954 43200.00000 0 4869898.267 -10455477.264 -22726410.288 10 0 60954 44100.00000 0 7632481.573 -10297400.245 -22027949.968 10 0 60954 45000.00000 0 10286761.165 -10338875.771 -20900577.935 10 0 60954 45900.00000 0 12767439.164 -10560748.891 -19366250.859 10 0 60954 46800.00000 0 15015102.991 -10932935.914 -17454864.007 10 0 60954 47700.00000 0 16978479.571 -11415804.557 -15203664.724 10 0 60954 48600.00000 0 18616355.478 -11961973.952 -12656520.778 10 0 60954 49500.00000 0 19899083.128 -12518457.558 -9863058.127 10 0 60954 50400.00000 0 20809610.661 -13029057.324 -6877685.508 10 0 60954 51300.00000 0 21343993.361 -13436906.754 -3758525.585 10 0 60954 52200.00000 0 21511366.513 -13687054.217 -566274.362 10 0 60954 53100.00000 0 21333382.474 -13728976.240 2636987.920 10 0 60954 54000.00000 0 20843137.441 -13518913.702 5789010.305 10 0 60954 54900.00000 0 20083634.953 -13021931.620 8828584.656 10 0 60954 55800.00000 0 19105852.576 -12213615.242 11696734.981 10 0 60954 56700.00000 0 17966494.638 -11081330.833 14337859.221 10 0 60954 57600.00000 0 16725526.700 -9624998.117 16700801.471 10 0 60954 58500.00000 0 15443596.039 -7857342.059 18739834.349 10 0 60954 59400.00000 0 14179446.625 -5803613.497 20415533.382 10 0 60954 60300.00000 0 12987436.631 -3500790.231 21695527.682 10 0 60954 61200.00000 0 11915261.689 -996291.569 22555113.687 10 0 60954 62100.00000 0 11001978.065 1653740.746 22977721.489 10 0 60954 63000.00000 0 10276407.090 4386524.777 22955225.968 10 0 60954 63900.00000 0 9755986.227 7134998.599 22488097.692 10 0 60954 64800.00000 0 9446113.588 9830362.154 21585391.272 10 0 60954 65700.00000 0 9340012.389 12404697.070 20264571.572 10 0 60954 66600.00000 0 9419120.406 14793557.545 18551180.890 10 0 60954 67500.00000 0 9653987.984 16938426.445 16478352.849 10 0 60954 68400.00000 0 10005647.092 18788936.093 14086181.441 10 0 60954 69300.00000 0 10427394.454 20304762.478 11420956.231 10 0 60954 70200.00000 0 10866914.392 21457114.721 8534277.307 10 0 60954 71100.00000 0 11268652.704 22229758.148 5482065.895 10 0 60954 72000.00000 0 11576342.009 22619528.173 2323488.883 10 0 60954 72900.00000 0 11735572.283 22636313.264 -880182.647 10 0 60954 73800.00000 0 11696297.873 22302507.292 -4066759.138 10 0 60954 74700.00000 0 11415174.486 21651953.709 -7174339.575 10 0 60954 75600.00000 0 10857626.482 20728425.615 -10142516.159 10 0 60954 76500.00000 0 9999555.699 19583705.225 -12913552.824 10 0 60954 77400.00000 0 8828617.991 18275343.424 -15433514.065 10 0 60954 78300.00000 0 7345011.680 16864193.706 -17653321.499 10 0 60954 79200.00000 0 5561742.555 15411824.422 -19529716.947 10 0 60954 80100.00000 0 3504352.237 13977918.601 -21026112.678 10 0 60954 81000.00000 0 1210119.314 12617771.127 -22113311.732 10 0 60954 81900.00000 0 -1273235.055 11379988.955 -22770083.838 10 0 60954 82800.00000 0 -3889284.370 10304491.464 -22983585.327 10 0 60954 83700.00000 0 -6575005.391 9420895.311 -22749614.526 10 0 60954 84600.00000 0 -9263170.945 8747351.789 -22072697.368 10 0 60954 85500.00000 0 -11884927.504 8289885.580 -20966001.280 99